User: anonymous   Login
Location: Unspecified
(0.0000°N, 0.0000°E)
Time: 16:18:37
(UTC+00:00)
Language:

ZHUHAI-1 OVS-02 - Orbit

View from above orbital plane
View from above orbital plane
View from above satellite
View from above satellite

Ground track
Ground track

The orbit data is extracted from the following two-line orbital elements,

1 43440U 18040B   21334.16768400  .00001895  00000-0  91135-4 0  9999
2 43440  97.2743  35.5973 0012000  36.4187  47.9561 15.19915758199432
Epoch (UTC): 30 November 2021 04:01:27
Eccentricity: 0.0012000
inclination: 97.2743°
perigee height: 498 km
apogee height: 514 km
right ascension of ascending node: 35.5973°
argument of perigee: 36.4187°
revolutions per day: 15.19915758
mean anomaly at epoch: 47.9561°
orbit number at epoch: 19943

The dashed part of the orbit path shows where the satellite is in the earth's shadow,  

DLR